COSMOS 1375 DEB, 16202

Orbit data source: Space-Track

COSMOS 1375 DEB, 16202 is space debris in LEO originally from a launch on Sun, 06 Jun 1982 UTC launched from the Plesetsk Missile And Space Complex (PKMTR). Debris objects in space refer to the collection of defunct objects orbiting the Earth. Examples of debris include non-operational satellites, rocket bodies, and fragments generated from explosions, collisions, or faulty payload assembly.

Loading next visibility...
Identifier
16202, 1982-055D
Orbit
LEO
Country
Flag of CISCIS
Related business
Manufacturer
Unknown
Mission
Spacecraft
Bus & Motor
Unknown
Mass
Unknown
Launch date (UTC)
1982-06-06 (44 years ago)
Launch vehicle
Unknown
Launch site
Plesetsk Missile And Space Complex (PKMTR)
Object type
Payload
Rocket body
Debris
Shape & HBR
Unknown shape, 0.1 m
Radar Cross Section
Medium (>0.1 m² and <1 m²)

Expand to show TLE details & history
Last TLE update: 2 days ago

TLE from 2 days ago
0 COSMOS 1375 DEB
1 16202U 82055D   26171.35617330  .00000169  00000-0  17149-3 0  9997
2 16202  65.8290 295.0891 0084767 341.4254  50.3938 13.98858771238280
Epoch: 2026-06-20T08:32Z
TLE epoch observation values (Epoch: 2026-06-20T08:32:53.373Z)
Latitude
29.48288°
Longitude
-87.08521°
Altitude
861.509 km
Speed
7.445 km/s
True Right ascension
20h 38m 50s
True Declination
29° 20' 16"
Sunlit
Object was in daylight at epoch
Visualization orbit readout
Latitude
Unknown
Longitude
Unknown
Altitude
Unknown
Speed
Unknown
Apparent Right ascension
Unknown
Apparent Declination
Unknown
Sunlit
N/A
Visualization observer readout
Local Sidereal Time
00:39:47
Azimuth
Unknown
Elevation
Unknown
Doppler factor
Unknown
Orbital elements
Apogee altitude
957.913 km
Perigee altitude
834.587 km
Semi-major axis
7,274.387 km
Eccentricity
0.00848
Inclination
65.829°
RAAN
295.0891°
Arg. of periapsis
341.4254°
True anomaly
51.14724°
Mean anomaly
50.3938°
Eccentric anomaly
50.77001°
Mean motion
3.49823 °/min
Orbital period
102.91 mins
BSTAR
0.00017149
Loading maneuver chart data...
Computing Atmospheric mass density...
Loading historical data...
Loading historical data...
Loading historical data...
Loading historical data...
Loading historical data...
Loading historical data...
Loading historical data...

Documentation

Showing up to 5 results
|